GW5002 Weather Reports


Display with metric or nautical units.
time (UTC)temp
F
wind
direction
speed
MPH
gust
MPH
rain 1hr
in
rain 24hr
in
rain mn
in
humidity
%
barometer
mb
20260503190039 66 180 0.0 0.0 0.00 0.06 0.00 55 1019.0
20260503184524 66 140 0.0 0.0 0.00 0.06 0.00 56 1019.2
20260503183027 66 163 0.0 0.0 0.00 0.07 0.00 53 1019.3
20260503181530 66 146 0.0 0.0 0.00 0.09 0.00 55 1019.4
20260503180029 66 146 0.0 0.0 0.00 0.10 0.00 54 1019.4
20260503174527 67 111 0.0 0.0 0.00 0.10 0.00 48 1019.5
20260503173024 67 191 0.0 0.0 0.00 0.11 0.00 46 1019.5
20260503171526 68 72 0.0 0.0 0.00 0.13 0.00 44 1019.7
20260503081540 0 0.0 0.0 0.00 0.38 0.00 1016.7
20260503071535 52 337 0.0 0.0 0.00 0.38 0.00 94 1016.3
20260503054533 53 42 0.0 0.0 0.00 0.42 0.00 94 1016.1
20260503053021 54 5 0.0 0.0 0.00 0.42 0.00 94 1016.0
20260503051527 54 27 0.0 0.0 0.00 0.43 0.00 94 1016.0
20260503050007 54 28 0.0 0.0 0.00 0.43 0.00 93 1015.8
20260503044514 54 55 0.0 0.0 0.00 0.43 0.00 93 1015.6
20260503043018 55 62 0.0 0.0 0.00 0.43 0.00 93 1015.3
20260503041524 55 30 0.0 0.0 0.00 0.43 0.00 93 1015.2
20260503040008 55 76 0.0 0.0 0.00 0.43 0.00 93 1015.0
20260503034514 55 321 0.0 0.0 0.00 0.43 0.43 92 1014.7
20260503033025 55 352 0.0 0.0 0.00 0.43 0.43 92 1014.6
20260503031520 55 352 0.0 0.0 0.00 0.43 0.43 92 1014.4
20260503030030 56 345 0.0 0.0 0.00 0.43 0.43 92 1014.2
20260503024509 56 352 0.0 0.0 0.00 0.43 0.43 92 1014.1
20260503023016 56 248 0.0 0.0 0.00 0.43 0.43 92 1014.0
20260503021520 56 36 0.0 0.0 0.00 0.43 0.43 92 1013.6
20260503020027 56 65 0.0 0.0 0.00 0.44 0.43 92 1013.5
20260503014527 56 360 0.0 0.0 0.00 0.44 0.43 92 1013.2
20260503013012 56 150 0.0 0.0 0.00 0.44 0.43 91 1012.9
20260503011520 56 49 0.0 0.0 0.00 0.44 0.43 92 1013.2
20260503010025 56 13 0.0 0.0 0.00 0.44 0.43 92 1013.2
20260503004551 56 319 0.0 0.0 0.00 0.44 0.43 93 1012.9
20260503003040 56 32 0.0 0.0 0.00 0.44 0.43 93 1012.6
20260503001522 56 28 0.0 0.0 0.00 0.45 0.43 93 1012.2
20260503000022 56 9 0.0 0.0 0.00 0.46 0.43 93 1012.3
20260502234527 56 360 0.0 0.0 0.00 0.47 0.43 93 1012.1
20260502233028 56 34 0.0 0.0 0.00 0.48 0.43 94 1011.8
20260502231526 56 54 0.0 0.0 0.00 0.49 0.43 94 1011.5
20260502230032 56 34 0.0 0.0 0.00 0.49 0.43 94 1011.4
20260502224523 57 352 0.0 0.0 0.00 0.50 0.43 95 1011.5
20260502223031 57 26 0.0 0.0 0.00 0.51 0.43 95 1011.6
20260502221528 56 337 0.0 0.0 0.00 0.51 0.43 95 1011.4
20260502220016 57 323 0.0 0.0 0.00 0.51 0.43 95 1011.2
20260502214522 57 350 0.0 0.0 0.00 0.51 0.43 95 1010.9
20260502213025 57 74 0.0 0.0 0.00 0.52 0.43 95 1010.8
20260502211528 57 5 0.0 0.0 0.01 0.55 0.43 95 1010.3
20260502210027 57 51 0.0 0.0 0.01 0.55 0.43 95 1010.2
20260502204520 57 349 0.0 0.0 0.01 0.56 0.43 95 1010.2
20260502203025 57 100 0.0 0.0 0.02 0.56 0.43 95 1010.1
20260502201527 58 360 0.0 0.0 0.03 0.55 0.42 95 1010.0
20260502200029 58 81 0.0 0.0 0.05 0.55 0.42 95 1009.8
20260502194531 59 98 0.0 0.0 0.05 0.55 0.42 95 1009.8
20260502193024 59 202 0.0 0.0 0.05 0.58 0.41 95 1010.0
20260502191508 60 12 0.0 0.0 0.05 0.56 0.39 96 1010.1